STARLINK-11415, 62592

Orbit data source: Space-Track

STARLINK-11415, 62592 is a payload satellite owned by SpaceX/Seattle (US) in LEO that was launched on Mon, 13 Jan 2025 UTC via an FALCON 9 launch vehicle from the Air Force Eastern Test Range (AFETR). Payload-class satellites include a variety of spacecraft equipped with specific instruments for various scientific and technological missions. These include communications satellites like Starlink; space stations such as the ISS; scientific satellites like the Hubble; Earth observation satellites from companies like Planet Labs, Umbra, and HawkEye 360; GPS; miniature CubeSats for education and research; and military/defense satellites.

Loading next visibility...
Identifier
62592, 2025-008F
Orbit
LEO
Last TLE update
1 day ago
Origin
Manufacturer
SpaceX/Seattle
Mission
Operational Commercial Communications
Bus & Motor
STARLINK V2M, Unknown motor
Mass
730 kg wet, ~700 kg dry
Launch date (UTC)
2025-01-13 (4 months ago)
Launch vehicle
FALCON 9
Launch site
Air Force Eastern Test Range (AFETR)
Object type
Payload
Rocket body
Debris
Shape & HBR
Box + 2 Pan, 29 m
Radar Cross Section
36.964 m², Large (>1 m²)

Expand to show TLE details & history

TLE from 1 day ago
0 STARLINK-11415
1 62592U 25008F   25128.13070046 -.00000480  00000-0 -25882-6 0  9993
2 62592  43.0001 168.3420 0000403 202.9533 157.1316 15.70827204 19166
Epoch: 2025-05-08T03:08Z
Definitive object data (Epoch: 2025-05-08T03:08:12.519Z)
Latitude
-0.00008°
Longitude
-104.91585°
Altitude
356.553 km
Speed
7.697 km/s
True Right ascension
11h 13m 22s
True Declination
0° 00' 00"
Sunlit
Object was in full shadow at TLE epoch
Visualization TLE readout
Latitude
-16.44538°
Longitude
-130.13811°
Altitude
360.006 km
Speed
7.694 km/s
Apparent Right ascension
06h 45m 16s
Apparent Declination
-39° 50' 49"
Sunlit
Object is in daylight
Visualization observer readout
Local Sidereal Time
14:38:55
Azimuth
249.162° W
Elevation
-43.736°
Doppler factor
1
Orbital elements
Apogee altitude
358.785 km
Perigee altitude
358.242 km
Semi-major axis
6,736.65 km
Eccentricity
0.0000403
Inclination
43.0001°
RAAN
168.342°
Arg. of periapsis
202.9533°
True anomaly
157.13339°
Mean anomaly
157.1316°
Eccentric anomaly
157.1325°
Mean motion
3.92534 °/min
BSTAR
-2.5882e-7
Orbital period
91.71 mins
Loading maneuver chart data...
Loading SW <> Apogee altitude chart data...
Loading historical data...
Loading historical data...
Loading historical data...
Loading historical data...
Loading historical data...
Loading historical data...
Loading historical data...

STARLINK-11415 Visibility forecast

Observer location: undefined°, undefined°

Span
Click to sort rows by Start time (UTC) header in descending order
Start Az.
Max El. time (UTC)
Max El. Az.
Max El.
End time (UTC)
End Az.
5 mins2025-05-09 06:52:04.897Z253.142° W2025-05-09 06:54:04.897Z272.148° WNW44.421°2025-05-09 06:57:04.897Z71.362° E
4 mins2025-05-09 08:29:04.897Z299.412° NW2025-05-09 08:30:04.897Z332.158° NNW32.472°2025-05-09 08:33:04.897Z71.75° E
4 mins2025-05-09 10:05:04.897Z292.126° WNW2025-05-09 10:07:04.897Z73.922° E42.799°2025-05-09 10:09:04.897Z102.553° ESE
4 mins2025-05-10 05:44:04.897Z222.418° SW2025-05-10 05:46:04.897Z128.642° SE35.537°2025-05-10 05:48:04.897Z81.748° E
|